DW7572 Weather Reports


Display with metric or nautical units.
time (UTC)temp
F
wind
direction
speed
MPH
gust
MPH
rain 1hr
in
rain 24hr
in
rain mn
in
humidity
%
barometer
mb
20260831231516 82 0 4.0 8.0 0.00 0.00 0.00 66 1013.2
20260831230536 82 0 6.0 9.0 0.00 0.00 0.00 63 1013.0
20260831225516 83 338 8.0 11.0 0.00 0.00 0.00 63 1013.1
20260831224516 83 338 8.0 12.0 0.00 0.00 0.00 64 1013.1
20260831223516 84 315 6.0 9.0 0.00 0.00 0.00 61 1013.1
20260831222516 84 338 8.0 10.0 0.00 0.00 0.00 62 1013.0
20260831221516 85 338 7.0 10.0 0.00 0.00 0.00 59 1013.1
20260831220516 85 338 8.0 11.0 0.00 0.00 0.00 59 1013.0
20260831215516 86 338 6.0 10.0 0.00 0.00 0.00 58 1013.0
20260831214517 85 338 4.0 6.0 0.00 0.00 0.00 58 1013.1
20260831213516 85 315 6.0 9.0 0.00 0.00 0.00 54 1012.9
20260831212516 86 338 7.0 9.0 0.00 0.00 0.00 56 1012.7
20260831211536 85 338 5.0 8.0 0.00 0.00 0.00 57 1012.8
20260831210516 86 338 6.0 9.0 0.00 0.00 0.00 54 1012.6
20260831205516 86 0 7.0 10.0 0.00 0.00 0.00 57 1012.7
20260831204516 86 315 7.0 12.0 0.00 0.00 0.00 54 1012.6
20260831203517 86 338 6.0 10.0 0.00 0.00 0.00 55 1012.7
20260831202516 86 338 8.0 12.0 0.00 0.00 0.00 56 1012.6
20260831201516 86 0 6.0 9.0 0.00 0.00 0.00 58 1012.5
20260831200516 86 338 8.0 11.0 0.00 0.00 0.00 55 1012.5
20260831195557 86 338 7.0 11.0 0.00 0.00 0.00 59 1012.4
20260831194516 85 338 9.0 13.0 0.00 0.00 0.00 58 1012.6
20260831193516 85 338 8.0 13.0 0.00 0.00 0.00 57 1012.6
20260831192516 85 0 7.0 11.0 0.00 0.00 0.00 58 1012.5
20260831191516 84 0 8.0 11.0 0.00 0.00 0.00 58 1012.6
20260831190516 85 338 7.0 11.0 0.00 0.00 0.00 59 1012.6
20260831185516 84 338 9.0 12.0 0.00 0.00 0.00 59 1012.6
20260831184516 84 338 9.0 13.0 0.00 0.00 0.00 57 1012.5
20260831183537 83 338 7.0 10.0 0.00 0.00 0.00 66 1012.5
20260831182516 83 315 8.0 13.0 0.00 0.00 0.00 68 1012.6
20260831181516 83 315 10.0 14.0 0.00 0.00 0.00 69 1012.6
20260831180516 82 338 9.0 12.0 0.00 0.00 0.00 72 1012.5
20260831175516 81 315 9.0 12.0 0.00 0.00 0.00 72 1012.6
20260831174516 82 338 8.0 11.0 0.00 0.00 0.00 77 1012.8
20260831173516 81 315 8.0 12.0 0.00 0.00 0.00 77 1012.7
20260831172515 80 338 7.0 12.0 0.00 0.00 0.00 78 1012.6
20260831171515 81 293 7.0 11.0 0.00 0.00 0.00 82 1012.6
20260831170516 79 315 7.0 11.0 0.00 0.00 0.00 84 1012.8
20260831165537 79 315 8.0 11.0 0.00 0.00 0.00 84 1012.8
20260831164516 78 315 7.0 10.0 0.00 0.00 0.00 85 1012.7
20260831163516 78 338 9.0 12.0 0.00 0.00 0.00 85 1012.7
20260831162515 78 338 8.0 11.0 0.00 0.00 0.00 86 1012.7
20260831161516 78 338 9.0 12.0 0.00 0.00 0.00 86 1012.7
20260831160515 78 315 9.0 13.0 0.00 0.00 0.00 87 1012.4
20260831155515 78 315 9.0 14.0 0.00 0.00 0.00 88 1012.3
20260831154538 78 338 9.0 12.0 0.00 0.00 0.00 91 1012.1
20260831153517 77 315 8.0 11.0 0.00 0.00 0.00 92 1012.0
20260831152538 76 338 8.0 11.0 0.00 0.00 0.00 93 1011.9
20260831151517 76 315 8.0 12.0 0.00 0.00 0.00 94 1011.9
20260831150517 76 338 8.0 11.0 0.00 0.00 0.00 96 1011.6
20260831145518 75 315 9.0 12.0 0.00 0.00 0.00 96 1011.6
20260831144517 75 338 8.0 11.0 0.00 0.00 0.00 96 1011.4
20260831143517 74 315 5.0 8.0 0.00 0.00 0.00 97 1011.4
20260831142518 74 293 5.0 8.0 0.00 0.00 0.00 97 1011.5
20260831141517 73 293 5.0 8.0 0.00 0.00 0.00 97 1011.6
20260831140537 73 293 5.0 11.0 0.00 0.00 0.00 97 1011.5
20260831135517 73 293 5.0 9.0 0.00 0.00 0.00 97 1011.5
20260831134518 73 293 5.0 8.0 0.00 0.00 0.00 97 1011.1
20260831133517 72 293 6.0 9.0 0.00 0.00 0.00 97 1010.9
20260831132517 72 270 4.0 9.0 0.00 0.00 0.00 98 1010.6
20260831131518 72 293 4.0 7.0 0.00 0.00 0.00 98 1010.5
20260831130517 71 293 5.0 9.0 0.00 0.00 0.00 98 1010.3
20260831125517 70 293 4.0 8.0 0.00 0.00 0.00 98 1010.3
20260831124538 70 270 2.0 3.0 0.00 0.00 0.00 98 1010.2
20260831123517 69 180 1.0 3.0 0.00 0.00 0.00 99 1010.0
20260831122517 69 180 1.0 3.0 0.00 0.00 0.00 99 1009.7
20260831121517 68 180 1.0 3.0 0.00 0.00 0.00 98 1009.5
20260831120517 68 180 2.0 3.0 0.00 0.00 0.00 98 1009.2
20260831115517 68 180 2.0 4.0 0.00 0.00 0.00 98 1009.3
20260831114517 68 203 3.0 5.0 0.00 0.00 0.00 98 1009.3
20260831113517 68 203 4.0 6.0 0.00 0.00 0.00 98 1009.1
20260831112517 67 203 3.0 5.0 0.00 0.00 0.00 98 1009.0
20260831111517 67 203 2.0 4.0 0.00 0.00 0.00 98 1008.9
20260831110517 68 180 3.0 6.0 0.00 0.00 0.00 98 1008.8
20260831105537 68 203 3.0 5.0 0.00 0.00 0.00 98 1008.6
20260831104517 68 203 2.0 4.0 0.00 0.00 0.00 98 1008.6
20260831103517 68 203 2.0 3.0 0.00 0.00 0.00 98 1008.5
20260831102517 69 203 1.0 2.0 0.00 0.00 0.00 98 1008.5
20260831101517 69 180 1.0 3.0 0.00 0.00 0.00 98 1008.6
20260831100517 69 0.0 0.0 0.00 0.00 0.00 98 1008.3
20260831095516 69 180 2.0 4.0 0.00 0.00 0.00 98 1008.3
20260831094517 69 180 3.0 4.0 0.00 0.00 0.00 98 1008.3
20260831093538 70 180 3.0 5.0 0.00 0.00 0.00 98 1008.4
20260831092516 70 180 3.0 4.0 0.00 0.00 0.00 98 1008.5
20260831091517 70 203 4.0 7.0 0.00 0.00 0.00 98 1008.5
20260831090557 70 180 4.0 6.0 0.00 0.00 0.00 98 1008.3
20260831085518 70 180 3.0 6.0 0.00 0.00 0.00 98 1008.5
20260831084516 71 180 4.0 5.0 0.00 0.00 0.00 98 1008.5
20260831083657 71 180 4.0 7.0 0.00 0.00 0.00 98 1008.5
20260831082516 71 180 4.0 6.0 0.00 0.00 0.00 98 1008.3
20260831081516 71 180 4.0 6.0 0.00 0.00 0.00 97 1008.1
20260831080517 71 180 4.0 6.0 0.00 0.00 0.00 97 1008.3
20260831075516 71 180 6.0 9.0 0.00 0.00 0.00 97 1008.2
20260831074517 71 180 6.0 10.0 0.00 0.00 0.00 97 1008.2
20260831073516 71 180 6.0 11.0 0.00 0.00 0.00 97 1008.2
20260831072517 72 180 6.0 9.0 0.00 0.00 0.00 97 1008.3
20260831071537 72 180 7.0 10.0 0.00 0.00 0.00 97 1008.3
20260831070516 72 180 6.0 10.0 0.00 0.00 0.00 97 1008.3
20260831065536 72 180 6.0 11.0 0.00 0.00 0.00 97 1008.4
20260831064536 72 180 6.0 10.0 0.00 0.00 0.00 97 1008.4
20260831063517 72 180 7.0 12.0 0.00 0.00 0.00 97 1008.4
20260831062516 73 158 7.0 12.0 0.00 0.00 0.00 97 1008.2
20260831061516 73 180 8.0 12.0 0.00 0.00 0.00 96 1008.5
20260831060537 73 180 8.0 14.0 0.00 0.00 0.00 96 1008.6
20260831055516 73 180 8.0 12.0 0.00 0.00 0.00 96 1008.6
20260831054517 73 158 8.0 13.0 0.00 0.00 0.00 96 1008.5
20260831053516 73 158 7.0 10.0 0.00 0.00 0.00 96 1008.7
20260831052516 73 158 7.0 11.0 0.00 0.00 0.00 96 1008.9
20260831051516 73 180 7.0 10.0 0.00 0.00 0.00 96 1009.0
20260831050517 73 158 6.0 12.0 0.00 0.00 0.00 96 1008.9
20260831045517 73 180 7.0 9.0 0.00 0.00 0.00 95 1008.9
20260831044517 73 180 7.0 12.0 0.00 0.00 0.00 95 1008.9
20260831043518 73 180 7.0 12.0 0.00 0.00 0.00 95 1008.9
20260831042517 73 158 7.0 10.0 0.00 0.00 0.00 94 1008.8
20260831041517 74 158 7.0 13.0 0.00 0.00 0.00 94 1008.8
20260831040517 74 158 7.0 12.0 0.00 0.00 0.00 94 1008.9
20260831035518 74 158 7.0 11.0 0.00 0.00 0.00 94 1008.6
20260831034517 74 158 8.0 12.0 0.00 0.00 0.00 93 1008.5
20260831033517 74 158 9.0 13.0 0.00 0.00 0.00 93 1008.5
20260831032517 74 158 9.0 13.0 0.00 0.00 0.00 93 1008.4
20260831031517 74 158 10.0 17.0 0.00 0.00 0.00 92 1008.4
20260831030517 75 158 10.0 15.0 0.00 0.00 0.00 92 1008.3
20260831025617 75 158 9.0 13.0 0.00 0.00 0.00 92 1008.3
20260831024518 75 158 9.0 13.0 0.00 0.00 0.00 91 1008.4
20260831023516 76 158 9.0 13.0 0.00 0.00 0.00 91 1008.4
20260831022537 76 158 8.0 15.0 0.00 0.00 0.00 91 1008.3
20260831021517 76 158 8.0 14.0 0.00 0.00 0.00 90 1008.3
20260831020558 76 158 7.0 14.0 0.00 0.00 0.00 90 1008.1
20260831015518 77 158 8.0 12.0 0.00 0.00 0.00 89 1008.1
20260831014516 77 158 7.0 12.0 0.00 0.00 0.00 89 1008.2
20260831013517 77 158 7.0 12.0 0.00 0.00 0.00 88 1008.1
20260831012517 78 158 7.0 11.0 0.00 0.00 0.00 87 1007.8
20260831011517 78 158 7.0 11.0 0.00 0.00 0.00 87 1007.9
20260831010517 78 158 7.0 11.0 0.00 0.00 0.00 86 1007.9
20260831005517 79 158 7.0 10.0 0.00 0.00 0.00 86 1007.9
20260831004516 79 158 7.0 11.0 0.00 0.00 0.00 85 1007.8
20260831003537 80 158 7.0 11.0 0.00 0.00 0.00 83 1007.8
20260831002517 81 180 10.0 16.0 0.00 0.00 0.00 81 1007.9
20260831001521 82 158 10.0 16.0 0.00 0.00 0.00 80 1007.9
20260831000517 82 180 10.0 15.0 0.00 0.00 0.00 80 1008.1
20260830235517 82 158 6.0 10.0 0.00 0.00 0.00 83 1007.6
20260830234517 82 158 7.0 10.0 0.00 0.00 0.00 83 1007.7
20260830233516 82 158 8.0 12.0 0.00 0.00 0.00 82 1007.6
20260830232516 82 158 6.0 10.0 0.00 0.00 0.00 82 1007.4